www.pogodaiklimat.ru

Погода и климат >> Архив погоды >> Дания >> Бранделев


ПОГОДА в Бранделеве

  • Прогноз погоды в Бранделеве
  • Монитор погоды в Бранделеве

АРХИВ ПОГОДЫ в Бранделеве

Время (UTC), дата Ветер
(напр.,м/с)
 
Видим.   Явления Облачность Т
(С)
Тd
(С)
f
(%)
Тe
(С)
Тes
(С)
Комфортность P
(гПа)
Po
(гПа)
Тmin
(С)
Tmax
(С)
R
(мм)
R24
(мм)
S
(см)
22 10.06 СВ 5 50 км н/о +13.6 +10.6 82 +12 +12 1014.2 1008.6
23 10.06 СВ 4 50 км н/о +13.9 +10.8 82 +12 +12 1013.9 1008.4
00 11.06 СВ 5 35 км слаб. морось {дождь} н/о +13.9 +10.8 82 +12 +12 1013.4 1007.9 0.0
01 11.06 СВ 5 50 км в посл. час дождь {ливн. осадки, морось} н/о +13.5 +11.2 86 +12 +12 1012.9 1007.3
02 11.06 СВ 5 50 км н/о +13.9 +11.7 87 +12 +12 1012.2 1006.6
03 11.06 СВ 5 40 км в посл. час дождь {ливн. осадки} н/о +14.0 +12.3 89 +12 +12 1011.6 1006.0 0.0
04 11.06 В 4 40 км н/о +14.3 +12.8 91 +13 +13 1011.9 1006.4
05 11.06 В 4 35 км н/о +14.4 +13.1 92 +13 +13 1011.7 1006.2
06 11.06 В 4 15 км в посл. час дождь {ливн. осадки} н/о +14.5 +14.0 97 +13 +13 1010.9 1005.4 +13.4 +16.7 0.1
07 11.06 В 6 24 км н/о +16.0 +15.2 95 +15 +15 1010.9 1005.4
08 11.06 В 7 30 км н/о +17.7 +14.8 83 +17 +17 1011.0 1005.5
09 11.06 В 7 28 км н/о +18.9 +15.8 82 +19 +19 1011.2 1005.8
10 11.06 В 8 28 км н/о +18.6 +15.5 82 +19 +19 1011.2 1005.8
11 11.06 В 6 20 км н/о +18.7 +15.8 83 +19 +19 1011.5 1006.0
12 11.06 В 8 22 км н/о +18.9 +15.9 83 +19 +19 1010.9 1005.5
13 11.06 ЮВ 6 28 км н/о +18.8 +15.9 83 +19 +19 1011.2 1005.8
14 11.06 ЮВ 6 22 км н/о +18.1 +15.9 87 +18 +18 1012.0 1006.6
15 11.06 В 4 24 км н/о +18.1 +16.0 88 +18 +18 1012.2 1006.7
16 11.06 ЮВ 5 27 км н/о +18.2 +15.9 86 +18 +18 1012.4 1006.9
17 11.06 В 5 26 км н/о +17.0 +15.3 90 +16 +16 1012.6 1007.1
18 11.06 В 4 21 км н/о +16.4 +15.1 92 +16 +16 1012.9 1007.4 +14.4 +19.6
19 11.06 ЮВ 4 27 км н/о +15.9 +14.6 92 +15 +15 1013.2 1007.7
20 11.06 ЮВ 7 19 км н/о +15.7 +14.7 94 +14 +14 1013.9 1008.4
21 11.06 ЮВ 6 3100 м н/о +14.6 +14.4 99 +13 +13 1014.4 1008.9
22 11.06 В 6 6000 м н/о +14.7 +14.6 99 +13 +13 1013.2 1007.7
23 11.06 В 4 11 км н/о +15.2 +14.7 97 +14 +14 1013.3 1007.8
00 12.06 В 1
{11}
19 км {дымка} н/о +15.7 +14.9 95 +16 +16 1014.2 1008.7
01 12.06 СВ 3 16 км н/о +15.7 +15.0 96 +15 +15 1013.4 1007.9
02 12.06 ЮЗ 2 10 км н/о +15.6 +15.0 96 +15 +15 1014.0 1008.5
03 12.06 СВ 4 8000 м н/о +14.7 +14.6 99 +13 +13 1012.8 1007.3 8
04 12.06 СВ 3 23 км в посл. час дождь н/о +14.7 +14.5 99 +14 +14 1010.6 1005.0 1
05 12.06 СВ 5 22 км н/о +15.1 +14.8 98 +14 +14 1009.9 1004.4
06 12.06 В 4 11 км {дождь} н/о +15.5 +15.1 97 +15 +15 1011.0 1005.5 +14.5 +16.4 1
07 12.06 В 5 27 км н/о +16.9 +15.5 91 +16 +16 1011.5 1006.0
08 12.06 ЮВ 8 18 км н/о +15.7 +14.8 94 +14 +14 1011.6 1006.1
09 12.06 ЮВ 7 22 км н/о +16.8 +15.4 91 +16 +16 1011.7 1006.2
10 12.06 В 8 21 км н/о +16.5 +15.1 91 +15 +15 1011.8 1006.3
11 12.06 В 8 16 км н/о +16.1 +14.9 93 +14 +14 1011.3 1005.8
12 12.06 В 8
{13}
15 км н/о +15.9 +14.5 91 +14 +14 1010.5 1005.0
13 12.06 В 8 20 км н/о +16.7 +15.0 90 +15 +15 1010.2 1004.7
14 12.06 В 6 16 км н/о +16.9 +15.3 90 +16 +16 1009.5 1004.1
15 12.06 В 6
{14}
18 км н/о +17.6 +15.5 87 +17 +17 1008.6 1003.2
16 12.06 В 6 18 км н/о +17.5 +15.5 88 +17 +17 1007.6 1002.2
17 12.06 В 4 13 км н/о +16.3 +15.0 92 +16 +16 1007.9 1002.4
18 12.06 ЮВ 6
{14}
2400 м н/о +14.3 +14.1 99 +12 +12 1008.7 1003.2 +14.3 +18.0
19 12.06 ЮВ 6 1200 м в посл. час туман {дымка} н/о +14.0 +14.0 100 +12 +12 1008.4 1002.9
20 12.06 ЮВ 3 3800 м слаб. дождь {морось} н/о +13.7 +13.7 100 +12 +12 1009.5 1003.9 2
21 12.06 В 6 6000 м слаб. дождь {морось} н/о +14.5 +14.5 100 +13 +13 1007.9 1002.4 5
22 12.06 Ю 3 9000 м в посл. час дождь н/о +14.3 +14.3 100 +13 +13 1009.5 1004.0 0.8
23 12.06 З 3 3000 м н/о +14.9 +14.9 100 +14 +14 1008.9 1003.4
00 13.06 ЮЗ 4
{9}
700 м {дождь, морось} н/о +15.2 +15.1 99 +14 +14 1009.5 1004.0 0.8
01 13.06 ЮЗ 5 4600 м н/о +15.6 +15.6 100 +14 +14 1010.0 1004.5
02 13.06 З 3 8000 м дымка н/о +14.3 +13.5 95 +13 +13 1010.8 1005.3
03 13.06 ЮЗ 2 5000 м дымка н/о +13.9 +13.5 97 +13 +13 1010.8 1005.3
04 13.06 ЮЗ 3 5000 м дымка н/о +14.0 +13.5 97 +13 +13 1011.6 1006.1
05 13.06 ЮЗ 3 8000 м н/о +14.6 +13.7 94 +14 +14 1012.4 1006.8
06 13.06 З 4 19 км {дымка} н/о +15.5 +13.4 87 +15 +15 1012.5 1006.9 +13.5 +15.8
07 13.06 З 4 29 км н/о +16.1 +12.6 80 +15 +15 1012.6 1007.1
08 13.06 ЮЗ 4 35 км н/о +17.0 +12.8 76 +17 +17 1013.0 1007.5
09 13.06 Ю 3 35 км н/о +17.9 +13.3 74 +18 +18 1013.6 1008.1
10 13.06 Ю 4 30 км н/о +20.2 +13.1 64 +22 +22 комфорт 1013.6 1008.2
11 13.06 Ю 4 45 км н/о +20.6 +12.4 59 +23 +23 комфорт 1013.8 1008.4
12 13.06 Ю 5 35 км н/о +21.4 +11.1 52 +23 +23 комфорт 1013.9 1008.5
13 13.06 Ю 5 45 км н/о +21.0 +11.0 53 +23 +23 комфорт 1013.7 1008.3
14 13.06 Ю 5 50 км н/о +21.6 +10.9 51 +23 +23 комфорт 1013.9 1008.5
15 13.06 Ю 4 45 км н/о +22.1 +11.9 52 +24 +24 комфорт 1013.7 1008.3
16 13.06 Ю 5 45 км н/о +20.7 +13.2 62 +23 +23 комфорт 1014.0 1008.6
17 13.06 ЮВ 4 45 км н/о +18.9 +12.9 68 +20 +20 1014.3 1008.8
18 13.06 В 5 45 км н/о +17.6 +13.2 75 +17 +17 1014.1 1008.6 +15.3 +22.4
19 13.06 В 4 50 км н/о +16.4 +13.1 81 +16 +16 1014.3 1008.8
20 13.06 В 4 50 км н/о +15.5 +12.2 81 +15 +15 1014.6 1009.1
21 13.06 ЮВ 4 35 км слаб. ливневой дождь н/о +14.8 +13.3 91 +14 +14 1015.1 1009.6 0.4
22 13.06 В 3 50 км {ливн. осадки} н/о +14.2 +13.0 92 +13 +13 1015.7 1010.1
23 13.06 ЮВ 5 50 км н/о +14.2 +13.0 92 +12 +12 1015.9 1010.4
00 14.06 ЮВ 6 30 км слаб. ливневой дождь н/о +14.3 +13.0 92 +12 +12 1016.0 1010.5 0.0
01 14.06 ЮВ 6 50 км в посл. час дождь {ливн. осадки} н/о +13.9 +12.5 91 +12 +12 1016.3 1010.7
02 14.06 ЮВ 4 50 км н/о +13.2 +12.4 95 +11 +11 1016.6 1011.0
03 14.06 ЮВ 3
{12}
30 км {ливн. осадки} н/о +12.5 +12.1 97 +11 +11 1017.2 1011.6 0.0
04 14.06 ЮВ 2 35 км н/о +13.0 +12.4 96 +12 +12 1017.3 1011.7
05 14.06 ЮВ 3 28 км н/о +14.7 +13.2 91 +14 +14 1017.3 1011.8
06 14.06 Ю 3
{12}
30 км {ливн. осадки} н/о +16.7 +13.2 80 +17 +17 1017.8 1012.3 +12.3 +17.6
07 14.06 ЮВ 3 35 км н/о +18.4 +14.5 78 +19 +19 1018.2 1012.7
08 14.06 Ю 3 30 км н/о +20.6 +14.7 69 +24 +24 комфорт 1018.6 1013.1
09 14.06 Ю 4 45 км н/о +21.7 +13.3 59 +24 +24 комфорт 1018.6 1013.2
10 14.06 Ю 4 45 км н/о +22.8 +12.2 51 +25 +25 комфорт 1018.8 1013.4
11 14.06 Ю 4 40 км н/о +23.4 +12.5 50 +26 +26 жарко 1018.7 1013.3
12 14.06 Ю 5 40 км н/о +23.9 +10.9 44 +25 +25 комфорт 1018.6 1013.2
13 14.06 ЮВ 6 30 км н/о +23.4 +13.8 55 +27 +27 душно 1018.5 1013.1
14 14.06 ЮВ 5 45 км н/о +19.9 +15.2 74 +22 +22 комфорт 1018.3 1012.9
15 14.06 В 6 50 км н/о +19.7 +15.0 74 +21 +21 комфорт 1017.6 1012.2
16 14.06 В 6 50 км н/о +18.8 +13.9 73 +19 +19 1017.4 1011.9
17 14.06 В 5 50 км н/о +18.1 +13.8 76 +18 +18 1017.3 1011.8
18 14.06 ЮВ 5 50 км н/о +17.8 +12.9 73 +17 +17 1017.1 1011.6 +16.7 +24.7
19 14.06 СВ 3 10 км н/о +15.3 +14.6 96 +15 +15 1017.9 1012.4 10
20 14.06 В 5 50 км слаб. ливневой дождь н/о +15.3 +14.0 92 +14 +14 1018.5 1013.0 2
21 14.06 В 3
{8}
50 км {ливн. осадки} н/о +15.2 +13.5 90 +14 +14 1018.1 1012.5 12
22 14.06 В 5 50 км н/о +15.1 +12.8 86 +14 +14 1017.6 1012.1
23 14.06 В 5 50 км н/о +15.6 +12.4 81 +14 +14 1017.1 1011.5
00 15.06 В 6
{8}
50 км {ливн. осадки} н/о +15.4 +11.9 80 +14 +14 1016.5 1011.0
01 15.06 В 5 50 км н/о +15.7 +12.2 80 +14 +14 1016.0 1010.5
02 15.06 В 4 50 км н/о +15.3 +12.9 86 +14 +14 1015.3 1009.8
03 15.06 В 4 45 км н/о +15.7 +13.4 86 +15 +15 1014.5 1009.0
04 15.06 ЮВ 4 40 км н/о +16.7 +14.2 85 +16 +16 1014.2 1008.7
05 15.06 В 5 40 км н/о +17.0 +14.7 86 +16 +16 1013.8 1008.3
06 15.06 В 4 40 км н/о +17.7 +15.5 87 +17 +17 1013.6 1008.2 +15.0 +17.8
07 15.06 В 5 35 км н/о +17.5 +15.2 86 +17 +17 1013.8 1008.4
08 15.06 В 6 45 км н/о +17.0 +14.1 83 +16 +16 1013.5 1008.0
09 15.06 В 4 35 км н/о +16.0 +14.2 89 +15 +15 1013.3 1007.8
10 15.06 ЮВ 2 17 км н/о +15.6 +14.2 91 +16 +16 1014.4 1008.9
11 15.06 В 8 22 км слаб. дождь н/о +14.8 +12.8 88 +13 +13 1012.4 1006.9 0.5
12 15.06 В 9-15
{17}
30 км слаб. дождь н/о +15.7 +12.3 80 +14 +14 1011.3 1005.8 1
13 15.06 В 9 35 км {дождь} н/о +16.7 +12.4 76 +15 +15 1011.6 1006.1 0.1
14 15.06 В 11 30 км н/о +17.6 +10.9 65 +16 +16 1011.2 1005.7
15 15.06 В 8-13
{16}
40 км {дождь} н/о +18.6 +9.6 56 +18 +18 1010.5 1005.0 0.1
16 15.06 В 9 45 км н/о +18.5 +9.9 57 +18 +18 1010.5 1005.0
17 15.06 ЮВ 7 50 км н/о +16.6 +12.6 77 +15 +15 1011.2 1005.7
18 15.06 ЮВ 6
{16}
50 км {дождь} н/о +16.5 +12.3 76 +15 +15 1011.0 1005.5 +14.7 +18.8
19 15.06 ЮВ 5 29 км н/о +15.9 +13.8 87 +15 +15 1011.6 1006.1
20 15.06 ЮВ 4 25 км н/о +15.8 +14.6 93 +15 +15 1012.4 1006.9
21 15.06 Ю 2 19 км н/о +15.6 +14.7 94 +16 +16 1012.8 1007.3
22 15.06 ЮЗ 2 8000 м н/о +15.3 +14.7 96 +15 +15 1013.0 1007.4
23 15.06 З 2 13 км н/о +14.8 +14.2 96 +14 +14 1013.2 1007.7
00 16.06 З 6 22 км н/о +15.9 +15.3 96 +15 +15 1013.4 1007.9
01 16.06 З 5 16 км н/о +15.2 +14.4 95 +14 +14 1013.8 1008.3
02 16.06 З 3 28 км н/о +14.5 +13.6 94 +13 +13 1014.2 1008.6
03 16.06 З 5 50 км н/о +14.2 +12.6 90 +13 +13 1014.7 1009.1
04 16.06 З 5 40 км н/о +13.8 +12.2 90 +12 +12 1015.2 1009.7
05 16.06 З 6 35 км н/о +13.7 +11.9 89 +12 +12 1016.1 1010.6
06 16.06 З 5 35 км н/о +14.9 +11.6 81 +13 +13 1016.8 1011.3 +13.5 +16.5
07 16.06 З 6 45 км н/о +16.4 +10.9 70 +15 +15 1017.1 1011.6
08 16.06 З 5 40 км н/о +17.2 +10.4 64 +17 +17 1017.4 1011.9
09 16.06 З 6 35 км н/о +18.5 +10.9 61 +18 +18 1018.0 1012.5
10 16.06 З 6 40 км н/о +19.1 +11.0 59 +20 +20 1018.4 1013.0
11 16.06 З 5 35 км н/о +19.2 +12.1 63 +20 +20 1018.7 1013.3
12 16.06 З 6 45 км н/о +18.5 +12.6 68 +19 +19 1019.2 1013.7
13 16.06 З 5 50 км н/о +18.8 +13.2 70 +19 +19 1019.7 1014.2
14 16.06 ЮЗ 4 50 км н/о +18.5 +13.0 70 +19 +19 1020.0 1014.5
15 16.06 З 3 50 км н/о +18.2 +13.4 74 +19 +19 1019.8 1014.4
16 16.06 З 3 50 км н/о +17.9 +13.5 75 +18 +18 1019.9 1014.4
17 16.06 З 4 40 км н/о +19.6 +12.4 63 +21 +21 комфорт 1019.9 1014.4
18 16.06 З 3 50 км н/о +18.5 +12.6 68 +19 +19 1020.1 1014.7 +14.9 +19.9
19 16.06 ЮЗ 2 50 км н/о +16.5 +13.1 80 +17 +17 1020.1 1014.6
20 16.06 ЮЗ 2 50 км н/о +15.3 +12.0 81 +15 +15 1020.3 1014.7
21 16.06 Ю 2 45 км н/о +13.3 +12.2 93 +13 +13 1020.6 1015.0
22 16.06 штиль 0 5000 м дымка н/о +12.7 +12.2 97 +12 +12 1020.8 1015.2
23 16.06 ЮЗ 1 6000 м в посл. час туман {дымка} н/о +12.3 +12.0 98 +12 +12 1020.7 1015.1
00 17.06 З 1 2300 м туман {дымка} н/о +11.7 +11.6 99 +11 +11 1021.0 1015.3
01 17.06 ЮЗ 1 9000 м дымка {туман} н/о +11.6 +11.4 99 +12 +12 1021.0 1015.4
02 17.06 штиль 0 9000 м дымка н/о +12.6 +12.5 99 +12 +12 1021.2 1015.5
03 17.06 З 2 6000 м туман {дымка} н/о +13.3 +13.2 99 +13 +13 1021.3 1015.7
04 17.06 штиль 0 2100 м дымка {туман} н/о +12.2 +11.5 95 +12 +12 1021.5 1015.8
05 17.06 З 2 30 км н/о +15.4 +13.3 87 +15 +15 1021.5 1015.9
06 17.06 З 2 30 км {туман, дымка} н/о +17.0 +12.1 73 +17 +17 1021.8 1016.2 +11.2 +18.5
07 17.06 З 3 40 км н/о +18.5 +12.0 66 +19 +19 1022.1 1016.6
08 17.06 З 3 45 км н/о +19.5 +12.8 65 +21 +21 комфорт 1022.2 1016.7
09 17.06 З 4 35 км н/о +19.7 +11.7 60 +21 +21 комфорт 1022.2 1016.7
10 17.06 ЮЗ 4 40 км н/о +20.3 +12.0 59 +22 +22 комфорт 1022.1 1016.7
11 17.06 ЮЗ 5 40 км н/о +20.9 +12.4 58 +23 +23 комфорт 1022.1 1016.6
12 17.06 З 5 45 км н/о +20.7 +12.6 60 +23 +23 комфорт 1022.0 1016.5
13 17.06 ЮЗ 5 35 км н/о +20.9 +13.1 61 +23 +23 комфорт 1022.0 1016.6
14 17.06 З 5 50 км н/о +21.2 +13.0 59 +23 +23 комфорт 1021.9 1016.4
15 17.06 З 3 50 км н/о +21.3 +13.8 62 +24 +24 комфорт 1021.6 1016.2
17 17.06 ЮЗ 2 50 км н/о +21.4 +13.4 60 +24 +24 комфорт 1021.1 1015.6
18 17.06 ЮЗ 2 50 км н/о +20.7 +12.1 58 +24 +24 комфорт 1020.9 1015.4 +17.1 +21.5
19 17.06 Ю 1 50 км н/о +19.6 +13.5 68 +23 +23 комфорт 1020.8 1015.3
20 17.06 ЮВ 1 50 км н/о +16.6 +14.2 86 +17 +17 1020.7 1015.2

 

Местоположение метеостанции Бранделев (Дания): широта 55.21 долгота 11.86 высота над уровнем моря 46 м.

В архиве по умолчанию представлена погода в Бранделеве за последнюю неделю. Архивные данные за месяц целиком и за предыдущие месяцы, начиная с января 2011 года, Вы можете получить, выбрав интересующий диапазон дат из раскрывающегося списка и нажав кнопку "Ввод!".


*Определитесь, кто Вы:
робот инопланетянин человек

Внимание! Время в таблицах - всемирное. Для получения местного времени необходимо прибавить поправку, которая равна 1 ч.

Смотрите также архив погоды в соседних городах и на ближайших метеорологических станциях:

Погода в Кёге (Дания) (28 км)
Погода в Флаккебэрге (Дания) (32 км)
Погода в Тысофте (Дания) (34 км)
Погода в Виндебаеке (Дания) (42 км)
Погода в Роскилле (Дания) (45 км)
Погода в Омо (Дания) (47 км)
Погода в Абеде (Дания) (54 км)
Погода в Хольбеке (Дания) (60 км)
Погода в Фальстербу АМС (Швеция) (64 км)
Погода в Фальстербу (Швеция) (64 км)

Пояснения к столбцам:

Ветер - указаны скорость ветра в м/с - средняя за 10 мин, порывы в срок и между сроками (в фигурных скобках) и направление, откуда дует ветер: С - северный, СВ - северо-восточный, В - восточный, ЮВ - юго-восточный, Ю - южный, ЮЗ - юго-западный, З - западный, СЗ - северо-западный.
Видимость - горизонтальная дальность видимости в метрах или километрах. При видимости от 1 до 10 км при отсутствии осадков обычно наблюдается дымка, при ухудшении видимости до 1 км и менее - туман. В сухую погоду видимость может ухудшаться дымом, пылью или мглою.
Явления - указаны атмосферные явления, наблюдавшиеся в срок или в последний час перед сроком; фигурными скобками обозначены явления, наблюдавшиеся между сроками (за 1-3 часа до срока); квадратными скобками обозначены град или гололедные отложения с указанием их диаметра в мм.
Облачность - указаны через наклонную черту общая и нижняя облачность в баллах и высота нижней границы облаков в метрах; квадратными скобками обозначены формы облаков: Ci - перистые, Cs - перисто-слоистые, Cc - перисто-кучевые, Ac - высококучевые, As - высокослоистые, Sc - слоисто-кучевые, Ns - слоисто-дождевые, Cu - кучевые, Cb - кучево-дождевые. Подробнее классификацию облаков см. в Атласе облаков (PDF).
T - Температура воздуха - температура, измеренная на высоте 2 м над землей.
Td - Температура точки росы - температура, при понижении до которой содержащийся в воздухе водяной пар достигнет насыщения.
f - Относительная влажность воздуха - влажноcть воздуха, измеренная на высоте 2 м над землей.
Te - Эффективная температура - температура, которую ощущает одетый по сезону человек в тени. Характеристика душности погоды. При расчете учитывается влияние влажности воздуха и скорости ветра на теплоощущения человека.
Tes - Эффективная температура на солнце - температура, которую ощущает человек, с поправкой на солнечный нагрев. Характеристика знойности погоды. Зависит от высоты солнца над горизонтом, облачности и скорости ветра. Ночью, в пасмурную погоду, а также при ветре 12 м/с и более поправка равна нулю.
P - Атмосферное давление - приведенное к уровню моря атмосферное давление.
Po - Атмосферное давление - измеренное на уровне метеостанции атмосферное давление.
Tmin - Минимальная температура - минимум температуры воздуха на высоте 2 м над землей.
Tmax - Максимальная температура - максимум температуры воздуха на высоте 2 м над землей.
R - Количество осадков - Количество выпавших осадков за период времени, мм. При наведении курсора мыши на число - период времени, за который выпало указанное количество осадков.
R24 - Количество осадков - Количество выпавших осадков за 24 часа, мм.
S - Снежный покров - Высота снежного покрова, см. При наведении курсора мыши на число - состояние снежного покрова и степень покрытия местности в баллах.